Rochester, MN

6:57 PM CDT on July 24, 2016 (GMT -0500)
Rochester/St. Mary\'s Hospita

Weather History for K9MN - January, 2014

Change the Weather History Date:

Sunday, January 26, 2014

  Actual Average (KRST) Record (KRST)
Temperature  
Mean Temperature 6 °F 16 °F  
Max Temperature 18 °F 24 °F 52 °F (2002)
Min Temperature -5 °F 8 °F -30 °F (1917)
Degree Days  
Heating Degree Days 58 49  
Month to date heating degree days 1287  
Since 1 July heating degree days 4365  
Cooling Degree Days 0 0  
Month to date cooling degree days 0  
Year to date cooling degree days 0  
Moisture  
Dew Point 2 °F    
Average Humidity 75    
Maximum Humidity 87    
Minimum Humidity 58    
Precipitation  
Precipitation 0.01 in 0.03 in 0.38 in (1916)
Month to date precipitation 0.72  
Year to date precipitation 0.72  
Snow  
Snow 0.00 in 0.40 in 7.20 in (1996)
Month to date snowfall 10.0  
Since 1 July snowfall 29.4  
Snow Depth -    
Sea Level Pressure  
Sea Level Pressure 29.53 in    
Wind  
Wind Speed 16 mph (WNW)    
Max Wind Speed 43 mph    
Max Gust Speed 60 mph    
Visibility 7 miles    
Events      
T = Trace of Precipitation, MM = Missing Value Source: NWS Daily Summary

Daily Weather History Graph

Daily Weather History Graph

Search for Another Location

Airport or City:

Trip Planner

Search our weather history database for the weather conditions in past years. The results will help you decide how hot, cold, wet, or windy it might be!

Date:

Astronomy

Jan. 26, 2014 Rise Set
Actual Time 7:33 AM CST 5:12 PM CST
Civil Twilight 7:02 AM CST 5:43 PM CST
Nautical Twilight 6:27 AM CST 6:18 PM CST
Astronomical Twilight 5:53 AM CST 6:52 PM CST
Moon 3:11 AM CST (1/26) 1:00 PM CST (1/26)
Length of Visible Light 10h 41m
Length of Day
9h 38m
Waning Crescent, 23% of the Moon is Illuminated
Jan 26
Waning Crescent
Jan 30
New
Feb 6
First Quarter
Feb 14
Full
Feb 22
Last Quarter

Hourly Weather History & Observations

Time (CST) Temp. Windchill Dew Point Humidity Pressure Visibility Wind Dir Wind Speed Gust Speed Precip Events Conditions
12:13 AM 6.3 °F -8.4 °F 2.3 °F 84% 29.52 in 1.2 mi ESE 10.4 mph - N/A   Overcast
12:32 AM 6.4 °F -9.0 °F 2.7 °F 84% 29.49 in 1.2 mi ESE 11.5 mph - 0.01 in   Overcast
12:53 AM 6.6 °F -8.0 °F 2.8 °F 84% 29.47 in 2.5 mi ESE 10.4 mph - 0.01 in   Overcast
1:13 AM 6.8 °F -8.6 °F 2.8 °F 84% 29.45 in 10.0 mi ESE 11.5 mph - N/A   Overcast
1:32 AM 7.0 °F -7.5 °F 2.5 °F 82% 29.45 in 10.0 mi ESE 10.4 mph - N/A   Overcast
1:53 AM 7.2 °F -5.4 °F 2.8 °F 82% 29.42 in 10.0 mi ESE 8.1 mph - N/A   Overcast
2:13 AM 7.3 °F -7.9 °F 3.2 °F 83% 29.41 in 4.0 mi ESE 11.5 mph - N/A   Overcast
2:32 AM 7.2 °F -8.1 °F 3.7 °F 86% 29.39 in 4.0 mi ESE 11.5 mph - N/A   Overcast
2:53 AM 7.3 °F -7.1 °F 3.9 °F 86% 29.37 in 3.0 mi ESE 10.4 mph - N/A   Overcast
3:13 AM 7.9 °F -4.6 °F 4.6 °F 87% 29.38 in 1.8 mi ESE 8.1 mph - N/A   Overcast
3:32 AM 8.4 °F -2.8 °F 5.0 °F 86% 29.37 in 4.0 mi ESE 6.9 mph - N/A   Overcast
3:53 AM 8.6 °F -1.3 °F 5.0 °F 85% 29.37 in 3.0 mi ESE 5.8 mph - N/A   Overcast
4:13 AM 8.6 °F 0.1 °F 5.2 °F 86% 29.38 in 3.0 mi ESE 4.6 mph - N/A   Overcast
4:32 AM 9.0 °F 0.6 °F 5.5 °F 86% 29.36 in 4.0 mi ESE 4.6 mph - N/A   Overcast
4:53 AM 9.5 °F 1.2 °F 5.9 °F 85% 29.35 in 5.0 mi ESE 4.6 mph - N/A   Overcast
5:13 AM 10.2 °F - 6.6 °F 85% 29.35 in 5.0 mi Calm Calm - N/A   Overcast
5:33 AM 10.2 °F 3.8 °F 6.4 °F 85% 29.35 in 10.0 mi ESE 3.5 mph - N/A   Overcast
5:53 AM 9.9 °F 1.6 °F 6.3 °F 85% 29.33 in 10.0 mi East 4.6 mph - N/A   Overcast
6:13 AM 10.0 °F - 6.6 °F 86% 29.35 in 10.0 mi Calm Calm - N/A   Overcast
6:33 AM 10.4 °F - 6.6 °F 85% 29.35 in 10.0 mi Calm Calm - N/A   Overcast
6:53 AM 11.1 °F - 7.5 °F 85% 29.35 in 10.0 mi Calm Calm - N/A   Overcast
7:13 AM 13.8 °F - 9.1 °F 82% 29.36 in 10.0 mi Calm Calm - N/A   Overcast
7:33 AM 14.0 °F -0.2 °F 9.9 °F 84% 29.37 in 10.0 mi West 12.7 mph 18.4 mph N/A   Overcast
7:53 AM 16.7 °F -1.1 °F 13.1 °F 86% 29.36 in 1.8 mi WNW 23.0 mph 32.2 mph N/A   Overcast
8:12 AM 16.3 °F -2.7 °F 12.6 °F 85% 29.38 in 2.0 mi WNW 26.5 mph 34.5 mph N/A   Overcast
8:33 AM 15.8 °F -2.7 °F 11.7 °F 84% 29.39 in 2.0 mi West 24.2 mph 36.8 mph N/A   Overcast
8:53 AM 15.1 °F -4.0 °F 10.6 °F 82% 29.38 in 4.0 mi WNW 25.3 mph 32.2 mph N/A   Overcast
9:13 AM 15.6 °F 0.1 °F 10.4 °F 80% 29.36 in 4.0 mi West 16.1 mph 28.8 mph N/A   Overcast
9:33 AM 15.8 °F -0.6 °F 10.2 °F 79% 29.37 in 7.0 mi West 18.4 mph 26.5 mph N/A   Overcast
9:53 AM 16.2 °F 1.3 °F 10.4 °F 78% 29.38 in 7.0 mi West 15.0 mph 27.6 mph N/A   Overcast
10:13 AM 16.0 °F -0.9 °F 9.3 °F 75% 29.39 in 7.0 mi West 19.6 mph 29.9 mph N/A   Overcast
10:33 AM 16.2 °F -1.8 °F 9.1 °F 74% 29.40 in 5.0 mi West 23.0 mph 31.1 mph N/A   Overcast
10:53 AM 17.2 °F 3.3 °F 9.9 °F 73% 29.42 in 7.0 mi West 13.8 mph 28.8 mph N/A   Overcast
11:13 AM 17.6 °F 0.5 °F 10.4 °F 73% 29.42 in 5.0 mi West 21.9 mph 34.5 mph N/A   Overcast
11:33 AM 17.6 °F 1.3 °F 10.4 °F 73% 29.42 in 10.0 mi West 19.6 mph 31.1 mph N/A   Overcast
11:53 AM 17.4 °F 0.6 °F 10.2 °F 73% 29.43 in 4.0 mi WNW 20.7 mph 39.1 mph N/A   Overcast
12:13 PM 17.4 °F 2.9 °F 10.4 °F 74% 29.41 in 7.0 mi West 15.0 mph 32.2 mph N/A   Overcast
12:33 PM 17.6 °F 1.7 °F 10.2 °F 73% 29.40 in 10.0 mi West 18.4 mph 29.9 mph N/A   Overcast
12:52 PM 18.1 °F 4.4 °F 10.6 °F 72% 29.41 in 5.0 mi West 13.8 mph 26.5 mph N/A   Overcast
1:13 PM 18.0 °F 0.2 °F 10.6 °F 73% 29.40 in 3.0 mi West 24.2 mph 33.4 mph N/A   Overcast
1:33 PM 17.6 °F 0.9 °F 11.5 °F 77% 29.40 in 1.2 mi West 20.7 mph 32.2 mph N/A   Overcast
1:52 PM 17.4 °F 0.6 °F 11.3 °F 77% 29.42 in 4.0 mi West 20.7 mph 38.0 mph N/A   Overcast
2:13 PM 18.1 °F 0.4 °F 11.8 °F 76% 29.42 in 3.0 mi West 24.2 mph 35.7 mph N/A   Overcast
2:33 PM 16.3 °F -5.8 °F 9.3 °F 74% 29.41 in 1.5 mi West 39.1 mph 49.5 mph N/A   Overcast
2:52 PM 15.4 °F -7.8 °F 4.5 °F 62% 29.43 in 5.0 mi WNW 42.6 mph 57.5 mph N/A   Overcast
3:13 PM 12.7 °F -7.5 °F 3.2 °F 66% 29.49 in 3.0 mi WNW 26.5 mph 36.8 mph N/A   Overcast
3:33 PM 12.9 °F -8.0 °F 3.4 °F 66% 29.49 in 10.0 mi WNW 28.8 mph 36.8 mph N/A   Overcast
3:52 PM 13.1 °F -11.1 °F 3.4 °F 65% 29.49 in 10.0 mi WNW 42.6 mph 55.2 mph N/A   Overcast
4:13 PM 10.8 °F -13.0 °F -1.3 °F 58% 29.53 in 7.0 mi WNW 36.8 mph 49.5 mph N/A   Mostly Cloudy
4:33 PM 9.7 °F -13.9 °F -1.5 °F 61% 29.55 in 7.0 mi West 34.5 mph 54.1 mph N/A   Mostly Cloudy
4:52 PM 8.4 °F -16.3 °F -3.8 °F 58% 29.56 in 7.0 mi West 36.8 mph 49.5 mph N/A   Scattered Clouds
5:13 PM 6.4 °F -17.8 °F -4.7 °F 60% 29.59 in 10.0 mi WNW 32.2 mph 52.9 mph N/A   Mostly Cloudy
5:33 PM 5.2 °F -21.0 °F -4.4 °F 65% 29.60 in 10.0 mi WNW 38.0 mph 51.8 mph N/A   Mostly Cloudy
5:53 PM 1.8 °F -25.2 °F -7.8 °F 64% 29.64 in 7.0 mi WNW 35.7 mph 59.8 mph N/A   Mostly Cloudy
6:13 PM 0.9 °F -26.7 °F -5.8 °F 74% 29.66 in 3.0 mi WNW 36.8 mph 51.8 mph N/A   Overcast
6:33 PM 0.1 °F -24.9 °F -8.1 °F 68% 29.69 in 10.0 mi WNW 27.6 mph 52.9 mph N/A   Mostly Cloudy
6:53 PM -0.4 °F -27.8 °F -7.4 °F 72% 29.71 in 5.0 mi West 34.5 mph 44.9 mph N/A   Overcast
7:13 PM -0.8 °F -28.0 °F -7.6 °F 73% 29.73 in 4.0 mi WNW 33.4 mph 46.0 mph N/A   Overcast
7:33 PM -1.3 °F -29.7 °F -9.4 °F 69% 29.74 in 7.0 mi WNW 36.8 mph 47.2 mph N/A   Overcast
7:53 PM -1.5 °F -26.6 °F -9.4 °F 69% 29.78 in 10.0 mi WNW 26.5 mph 46.0 mph N/A   Overcast
8:13 PM -1.7 °F -28.1 °F -9.4 °F 70% 29.80 in 10.0 mi WNW 29.9 mph 44.9 mph N/A   Overcast
8:33 PM -1.8 °F -27.1 °F -9.6 °F 70% 29.82 in 10.0 mi WNW 26.5 mph 44.9 mph N/A   Overcast
8:53 PM -2.2 °F -29.2 °F -11.9 °F 63% 29.83 in 10.0 mi WNW 31.1 mph 44.9 mph N/A   Overcast
9:13 PM -2.7 °F -29.9 °F -12.8 °F 62% 29.86 in 10.0 mi WNW 31.1 mph 44.9 mph N/A   Overcast
9:33 PM -3.1 °F -28.4 °F -13.0 °F 63% 29.89 in 10.0 mi WNW 25.3 mph 38.0 mph N/A   Overcast
9:53 PM -3.3 °F -29.0 °F -13.0 °F 63% 29.90 in 10.0 mi WNW 26.5 mph 38.0 mph N/A   Overcast
10:13 PM -3.6 °F -31.2 °F -13.0 °F 64% 29.91 in 10.0 mi WNW 31.1 mph 38.0 mph N/A   Overcast
10:33 PM -4.2 °F -27.8 °F -13.2 °F 65% 29.94 in 10.0 mi West 20.7 mph 35.7 mph N/A   Overcast
10:53 PM -4.5 °F -27.1 °F -14.1 °F 64% 29.95 in 10.0 mi WNW 18.4 mph 32.2 mph N/A   Overcast
11:13 PM -4.7 °F -29.6 °F -13.7 °F 65% 29.96 in 10.0 mi WNW 23.0 mph 34.5 mph N/A   Overcast
11:32 PM -5.3 °F -27.5 °F -14.1 °F 66% 29.98 in 10.0 mi WNW 17.3 mph 36.8 mph N/A   Overcast
11:53 PM -5.8 °F -32.4 °F -14.1 °F 67% 29.99 in 10.0 mi WNW 26.5 mph 34.5 mph N/A   Overcast